Regional Weather Roundup
Issued by NWS Jackson, KY

Home | Current Version | Previous Version | Graphics & Text | Print | Product List | Glossary On
Versions: 1 2 3 4 5 6 7 8 9 10 11 12 13 14 15 16 17 18 19 20 21 22 23 24 25 26 27
000
ASUS43 KJKL 270410
RWRJKL

EAST KENTUCKY HOURLY WEATHER ROUNDUP
NATIONAL WEATHER SERVICE JACKSON KY
1200 AM EDT MON MAR 27 2017

NOTE: "FAIR" INDICATES FEW OR NO CLOUDS BELOW 12,000 FEET WITH
NO SIGNIFICANT WEATHER AND/OR OBSTRUCTIONS TO VISIBILITY.

* THESE REPORTS ARE NOT UNDER NWS QUALITY CONTROL AND MAY NOT
  REPORT WEATHER SUCH AS PRECIPITATION AND FOG.

KYZ079-080-083-085-087-088-110-112-115-119-120-270500
...EASTERN KENTUCKY...

CITY           SKY/WX    TMP DP  RH WIND       PRES   REMARKS
JACKSON        PTCLDY    60  55  83 S6        30.01F
LONDON         MOCLDY    61  54  77 SW5       30.03S
SOMERSET*      CLOUDY    63  50  63 S3        30.03S
MONTICELLO*    CLOUDY    62  53  72 SW13G18   30.04S
WILLIAMSBURG*  PTCLDY    63  57  82 SW3       30.03F
MIDDLESBORO*   PTCLDY    55  54  97 CALM      30.06S
HARLAN APT*    CLOUDY    63  50  63 CALM      30.05S
PIKE CO APT*   CLOUDY    58  58 100 CALM      30.04S
BIG SANDY APT* CLOUDY    61  57  88 SW9       30.02S
MOREHEAD APT*  CLOUDY    59  57  94 CALM      30.01S
ASHLAND*       CLOUDY    55  54  94 CALM      29.97S
$$

KYZ035-036-041-042-044-050-067-078-099-270500
...CENTRAL KENTUCKY...

CITY           SKY/WX    TMP DP  RH WIND       PRES   REMARKS
MT STERLING*   CLOUDY    57  55  94 W6        30.01S
FLEMING/MASON* LGT RAIN  58  55  92 NW12G17   30.01R
DANVILLE*      LGT RAIN  61  54  77 W3        30.02R
LEXINGTON      CLOUDY    59  54  83 NW5       30.00R
FRANKFORT      CLOUDY    59  52  77 W3        29.99R
LOUISVILLE     CLOUDY    58  48  69 W6        29.99S
LEBANON*         N/A     57  55  94 W3        30.01S
GLASGOW*       MOCLDY    58  53  84 CALM      30.00F
BOWLING GREEN  CLOUDY    57  52  83 CALM      30.00S
$$

KYZ091>093-OHZ055-061-077-WVZ005-015-034-035-042-270500
...SOUTHERN OHIO/WEST VIRGINIA...

CITY           SKY/WX    TMP DP  RH WIND       PRES   REMARKS
COVINGTON      CLEAR     55  53  93 W6        29.98R
COLUMBUS       CLOUDY    56  55  97 S6        29.95S
DAYTON         PTCLDY    54  52  93 SW12      29.96R
WILMINGTON     MOCLDY    54  53  97 SW7       29.97R
HUNTINGTON     CLOUDY    59  55  87 S6        29.98F
CHARLESTON     LGT RAIN  59  56  89 S5        30.00F
PINEVILLE*     LGT RAIN  55  53  91 MISG      30.10F
BECKLEY        LGT RAIN  56  52  86 S10       30.06F
LOGAN CO APT*  HVY RAIN  57  57 100 CALM      30.05R VSB 1/2
$$

VAZ002-007-008-TNZ017-027-036-066-071-270500
...SOUTHWEST VIRGINIA/EAST TENNESSEE...

CITY           SKY/WX    TMP DP  RH WIND       PRES   REMARKS
WISE*          LGT RAIN  59  52  77 SW9       30.09S
JONESVILLE*      N/A     55  54  94 CALM      30.08S
ABINGDON*      PTCLDY    62  51  68 W3        30.08F
BRISTOL        MOCLDY    58  52  80 CALM      30.07F
MORRISTOWN*    MOCLDY    59  55  88 CALM      30.05F
SEVIERVILLE*   PTCLDY    59  52  77 CALM      30.05S
KNOXVILLE      PTCLDY    61  53  75 SW8       30.04F
LAFOLLETTE*    PTCLDY    66  50  55 VRB6G13   30.07F
OAK RIDGE      CLOUDY    62  52  69 SW3       30.05F
CROSSVILLE     CLOUDY    56  49  77 CALM      30.07F
NASHVILLE      CLOUDY    61  54  77 S6        30.00F
$$

...KEY TO REMARKS...
VSB - VISIBILITY IN MILES
WCI - WIND CHILL INDEX
HX  - HEAT INDEX

$$




USA.gov is the U.S. government's official web portal to all federal, state and local government web resources and services.